{"data":{"norad_id":38759,"intl_designator":"2012-048B","name":"SMDC ONE 1.2","alt_names":[],"object_type":"PAYLOAD","status":"ACTIVE","operator":null,"country":"US","launch_date":"2012-09-13","launch_site_code":"AFWTR","launch_vehicle":null,"mission":null,"orbit_class":"UNKNOWN","rcs_meters":null,"size_class":null,"mass_kg":null,"dimensions":null,"purposes":[],"wikipedia_slug":null,"has_3d_model":false,"image_url":null,"decayed_at":null,"tle_current":{"epoch":"2026-05-24T15:50:21.220512Z","epoch_age_seconds":114808,"freshness":"FRESH","line1":"1 38759U 12048B   26144.65996783  .00010441  00000+0  42694-3 0  9994","line2":"2 38759  64.6580 254.9412 0097306 184.6880 175.3346 15.20499243112574","mean_motion":15.20499243,"eccentricity":0.0097306,"inclination_deg":64.658,"raan_deg":254.9412,"arg_perigee_deg":184.688,"mean_anomaly_deg":175.3346,"bstar":0.00042694,"rev_number":11257,"period_min":94.705736068558,"perigee_km":437.36309850717,"apogee_km":571.30423666318,"semimajor_km":6882.4706675852,"source":"CELESTRAK","updated_at":"2026-05-25T13:37:55.306639Z"}}}